Lexington Weather

Lexington, Massachusetts, USA

70°F
8/17/2022 6:20pm 
  • Lexington Conditions: Overcast
  • Temperature: 70.2°F / 21.2°CColder 0.3°F than last hour.
  • Dew Point: 59.2°FIncreased 0.6°Fsince last hour.
  • Relative Humidity: 68%Increased 2.0% since last hour.
  • Wind: Calm, 10-min avg: Calm, gust: None
  • Barometer: 29.85 inFalling 0.02  inHg/hr Falling Slowly
  • Visibility: 10 miles
  • Rain Today: 0.00 in
  •   

Regional Weather Roundup
for Boston, MA

        
000
ASUS41 KBOX 132010
RWRBOX

REGIONAL WEATHER ROUNDUP
NATIONAL WEATHER SERVICE BOSTON/NORTON MA
400 PM EDT SAT AUG 13 2022

NOTE:  "FAIR" INDICATES FEW OR NO CLOUDS BELOW 12,000 FEET WITH NO 
SIGNIFICANT WEATHER AND/OR OBSTRUCTIONS TO VISIBILITY.

MAZALL-132100-
EASTERN MASSACHUSETTS
  
CITY           SKY/WX    TMP DP  RH WIND       PRES   REMARKS
BOSTON         MOSUNNY   70  58  65 SE9       30.05F                  
BEVERLY        MOSUNNY   77  51  40 NE9       30.04S                  
LAWRENCE       CLOUDY    76  53  44 NE9       30.06F                  
BEDFORD        CLOUDY    76  50  40 CALM      30.03F                  
BLUE HILL      NOT AVBL                                               
NORWOOD        PTSUNNY   77  52  41 NE7       30.04S                  
MARSHFIELD     SUNNY     70  59  68 NE7       30.05S                  
PLYMOUTH       SUNNY     73  59  61 NE8       30.05F                  
TAUNTON          N/A    N/A N/A N/A MISG      30.03S                  
NEW BEDFORD    CLOUDY    79  52  38 N6        30.02F                  
$$

MAZALL-132100-
CAPE COD AND THE ISLANDS
  
CITY           SKY/WX    TMP DP  RH WIND       PRES   REMARKS
FALMOUTH       SUNNY     72  57  60 NE16      30.04F                  
HYANNIS        SUNNY     73  60  63 N13       30.03S                  
CHATHAM        CLOUDY    73  61  65 VRB6      30.03F                  
NANTUCKET      MOSUNNY   75  63  66 N14       30.02F                  
MARTHAS VNYRD  SUNNY     77  58  51 N12       30.03S                  
$$
 
MAZALL-132100-
CENTRAL AND WESTERN MASSACHUSETTS
  
CITY           SKY/WX    TMP DP  RH WIND       PRES   REMARKS
WORCESTER      CLOUDY    71  47  42 VRB5      30.07F                  
FITCHBURG      CLOUDY    75  40  28 VRB3      30.05F                  
ORANGE         SUNNY     78  49  35 N8G20     30.07F                  
SPRINGFIELD    PTSUNNY   75  47  37 NE10G16   30.03F                  
WESTFIELD      PTSUNNY   79  47  32 NE12G17   30.05F                  
NORTH ADAMS    CLOUDY    72  52  49 VRB7      30.09F                  
PITTSFIELD     PTSUNNY   73  49  42 N7        30.09F                  
$$
 
RIZALL-132100-
RHODE ISLAND
  
CITY           SKY/WX    TMP DP  RH WIND       PRES   REMARKS
PROVIDENCE     PTSUNNY   80  48  32 N9        30.03F                  
NEWPORT        PTSUNNY   76  50  40 NW5       30.03F                  
BLOCK ISLAND   PTSUNNY   76  51  41 VRB3      30.05F                  
SMITHFIELD     CLOUDY    74  50  42 N7        30.05F                  
WESTERLY       PTSUNNY   80  46  30 VRB5      30.03F                  
$$
 
CTZALL-132100-
CONNECTICUT
  
CITY           SKY/WX    TMP DP  RH WIND       PRES   REMARKS
BRADLEY INTL   PTSUNNY   77  49  37 N9        30.06F                  
HARTFORD       PTSUNNY   77  49  37 N10       30.05F                  
BRIDGEPORT     CLOUDY    75  54  47 SW8       30.05F                  
DANBURY        PTSUNNY   75  48  38 N8        30.08F                  
GROTON         PTSUNNY   79  48  33 N10       30.02F                  
NEW HAVEN      CLOUDY    79  50  36 N13       30.06S                  
CHESTER        FAIR      75  46  35 N9        30.06S                  
MERIDEN        PTSUNNY   77  48  35 N8        30.05F                  
WILLIMANTIC    CLOUDY    75  48  38 N8        30.05F                  
OXFORD         CLOUDY    75  50  41 NW10G16   30.08F                  
$$

MEZ002-015-021-024-NHZ003-005-008-011-012-014-VTZ005-008-132100-
NORTHERN NEW ENGLAND
  
CITY           SKY/WX    TMP DP  RH WIND       PRES   REMARKS
PORTLAND ME    PTSUNNY   73  54  51 E5        30.05F                  
BANGOR ME      CLOUDY    79  53  40 VRB3      30.04S                  
CONCORD NH     PTSUNNY   74  50  42 NW10      30.05F                  
MANCHESTER NH  PTSUNNY   77  47  34 NE5       30.03F                  
NASHUA NH      PTSUNNY   75  49  39 NW6       30.05F                  
PORTSMOUTH NH  PTSUNNY   75  51  43 SE9       30.04F                  
JAFFREY NH     PTSUNNY   75  49  39 NW7       30.07F                  
KEENE NH       CLOUDY    73  52  47 NW7         N/A                   
BURLINGTON VT  MOSUNNY   76  47  35 N12       30.10F                  
MT. WASHINGTON PTSUNNY   46  43  87 N9          N/A  VSB 1            
$$

NYZ052-076-132100-
EASTERN NEW YORK
  
CITY           SKY/WX    TMP DP  RH WIND       PRES   REMARKS
ALBANY         PTSUNNY   75  51  43 N6        30.08F                  
NEW YORK CITY  PTSUNNY   79  46  31 NE8       30.05F                  
$$
 
ANZALL-132100-
MARINE OBSERVATIONS
  
STATION/POSITION TIME  TEMP    WIND        PRES    VSBY  WAVE
                       AIR SEA DIR/SP/G                  HT/PER
                 (UTC) (F)     (DEG/KT/KT) (MB)    (MI)  (FT/S)
BOSTON BUOY      NOT AVBL
BUZZARDS BAY     NOT AVBL
NANTUCKET SOUND  NOT AVBL
MASS BAY-STELLWA NOT AVBL
ISLE OF SHOALS   NOT AVBL
S OF BLOCK IS    NOT AVBL
$$

......................KEY.........................
  SKY/WX - SKY CONDITION/PRESENT WEATHER
  TMP    - TEMPERATURE IN FAHRENHEIT
  DWPT   - DEWPOINT IN FAHRENHEIT
  RH     - RELATIVE HUMIDITY IN PERCENT
  WIND   - DIRECTION AND SPEED IN MPH
  PRES   - MEAN SEA LEVEL PRESSURE IN INCHES OF HG
  WCI    - WIND CHILL INDEX
  VSB    - VISIBILITY IN MILES
  HX     - HEAT INDEX
  TC     - TEMPERATURE IN CELSIUS
  VRB    - VARIABLE WIND DIRECTION
  N/A    - NOT AVAILABLE
  
      

Other recent Regional Weather Roundups

Wed Aug 17, 5:10pm

Wed Aug 17, 4:10pm

Wed Aug 17, 3:10pm

Wed Aug 17, 2:10pm

Wed Aug 17, 1:10pm

Wed Aug 17, 12:10pm

Wed Aug 17, 11:10am

Wed Aug 17, 10:10am

Wed Aug 17, 9:10am

Wed Aug 17, 8:10am

Wed Aug 17, 7:10am

Wed Aug 17, 6:10am

Wed Aug 17, 5:10am

Wed Aug 17, 4:10am

Wed Aug 17, 3:10am

Wed Aug 17, 2:10am

Wed Aug 17, 1:10am

Wed Aug 17, 12:10am

Tue Aug 16, 11:10pm

Tue Aug 16, 10:10pm

Tue Aug 16, 9:10pm

Tue Aug 16, 8:10pm

Tue Aug 16, 7:10pm

Tue Aug 16, 6:10pm

Tue Aug 16, 5:10pm

Tue Aug 16, 4:10pm

Tue Aug 16, 3:10pm

Tue Aug 16, 2:10pm

Tue Aug 16, 1:10pm

Tue Aug 16, 12:10pm

Tue Aug 16, 11:10am

Tue Aug 16, 10:10am

Tue Aug 16, 9:10am

Tue Aug 16, 8:10am

Tue Aug 16, 7:10am

Tue Aug 16, 6:10am

Tue Aug 16, 5:10am

Tue Aug 16, 4:10am

Tue Aug 16, 3:10am

Tue Aug 16, 2:10am

Tue Aug 16, 1:10am

Tue Aug 16, 12:10am

Mon Aug 15, 11:10pm

Mon Aug 15, 10:10pm

Mon Aug 15, 9:10pm

Mon Aug 15, 8:10pm

Mon Aug 15, 7:10pm

Mon Aug 15, 6:10pm

Mon Aug 15, 5:10pm

Mon Aug 15, 4:10pm

Mon Aug 15, 3:10pm

Mon Aug 15, 2:10pm

Mon Aug 15, 1:10pm

Mon Aug 15, 12:10pm

Mon Aug 15, 11:10am

Mon Aug 15, 10:10am

Mon Aug 15, 9:10am

Mon Aug 15, 8:10am

Mon Aug 15, 7:10am

Mon Aug 15, 6:10am

Mon Aug 15, 5:10am

Mon Aug 15, 4:10am

Mon Aug 15, 3:10am

Mon Aug 15, 2:10am

Mon Aug 15, 1:10am

Mon Aug 15, 12:10am

Sun Aug 14, 11:10pm

Sun Aug 14, 10:10pm

Sun Aug 14, 9:10pm

Sun Aug 14, 8:10pm

Sun Aug 14, 7:10pm

Sun Aug 14, 6:10pm

Sun Aug 14, 5:10pm

Sun Aug 14, 4:10pm

Sun Aug 14, 3:10pm

Sun Aug 14, 2:10pm

Sun Aug 14, 1:10pm

Sun Aug 14, 12:10pm

Sun Aug 14, 11:10am

Sun Aug 14, 10:10am

Sun Aug 14, 9:10am

Sun Aug 14, 8:10am

Sun Aug 14, 7:10am

Sun Aug 14, 6:10am

Sun Aug 14, 5:10am

Sun Aug 14, 4:10am

Sun Aug 14, 3:10am

Sun Aug 14, 2:10am

Sun Aug 14, 1:10am

Sun Aug 14, 12:10am

Sat Aug 13, 11:10pm

Sat Aug 13, 10:10pm

Sat Aug 13, 9:10pm

Sat Aug 13, 8:10pm

Sat Aug 13, 7:10pm

Sat Aug 13, 6:10pm

Sat Aug 13, 5:10pm

Sat Aug 13, 3:10pm

Sat Aug 13, 2:10pm

Sat Aug 13, 1:10pm

Sat Aug 13, 12:10pm

Sat Aug 13, 11:10am

Sat Aug 13, 10:10am

Sat Aug 13, 9:10am

Sat Aug 13, 8:10am

Sat Aug 13, 7:10am

Sat Aug 13, 6:10am

Sat Aug 13, 5:10am

Sat Aug 13, 4:10am

Sat Aug 13, 3:10am

Sat Aug 13, 2:10am

Sat Aug 13, 1:10am

Sat Aug 13, 12:10am

Fri Aug 12, 11:10pm

Fri Aug 12, 10:10pm

Fri Aug 12, 9:10pm

Fri Aug 12, 8:10pm

Fri Aug 12, 7:10pm

Fri Aug 12, 6:10pm

Fri Aug 12, 5:10pm

Fri Aug 12, 4:10pm

Fri Aug 12, 3:10pm

Fri Aug 12, 2:10pm

Fri Aug 12, 1:10pm

Fri Aug 12, 12:10pm

Fri Aug 12, 11:10am

Fri Aug 12, 10:10am

Fri Aug 12, 9:10am

Fri Aug 12, 8:10am

Fri Aug 12, 7:10am

Fri Aug 12, 6:10am

Fri Aug 12, 5:10am

Fri Aug 12, 4:10am

Fri Aug 12, 3:10am

Fri Aug 12, 2:10am

Fri Aug 12, 1:10am

Fri Aug 12, 12:10am

Thu Aug 11, 11:10pm

Thu Aug 11, 10:10pm

Thu Aug 11, 9:10pm

Thu Aug 11, 8:10pm

Thu Aug 11, 7:10pm

Thu Aug 11, 6:10pm

Thu Aug 11, 5:10pm

Thu Aug 11, 4:10pm

Thu Aug 11, 3:10pm

Thu Aug 11, 2:10pm

Thu Aug 11, 1:10pm

Thu Aug 11, 12:10pm

Thu Aug 11, 11:10am

Thu Aug 11, 10:10am

Thu Aug 11, 9:10am

Thu Aug 11, 8:10am

Thu Aug 11, 7:10am

Thu Aug 11, 6:10am

Thu Aug 11, 5:10am

Thu Aug 11, 4:10am

Thu Aug 11, 3:10am

Thu Aug 11, 2:10am

Thu Aug 11, 1:10am

Thu Aug 11, 12:10am

Wed Aug 10, 11:10pm

Wed Aug 10, 10:10pm

Wed Aug 10, 9:10pm

Wed Aug 10, 8:10pm

Wed Aug 10, 7:10pm

Wed Aug 10, 6:10pm

Meta data:

ID: 3f1c6b43-f6da-4d7d-b6da-493402e21009
Link: https://api.weather.gov/products/3f1c6b43-f6da-4d7d-b6da-493402e21009